Location: Santa Cristina
(46.5667°N, 11.7167°E)
Time: 07:16:41
(UTC+00:00)

CZ-2D R/B - Pass Details

Date: 21 April 2021
Orbit: 792 x 844 km, 98.7° (Epoch: 05 May)

Event Time Altitude Azimuth Distance (km) Brightness Sun altitude
Rises 01:07:47 0° 12° (NNE) 3,415 6.5 -26.0°
Reaches altitude 10° 01:10:10 10° 11° (N) 2,476 5.5 -25.8°
Maximum altitude 01:15:40 75° 288° (WNW) 876 2.1 -25.3°
Enters shadow 01:16:15 68° 238° (WSW) 909 2.1 -25.3°
